This is the latest recevied weather packets stored in our database for station/object F6DEV-13. If no packets are shown the sender has not sent any weather packets the latest 10 day(s).
| Time | Temp. | Humidity | Pressure | Rain* | Wind** | Luminosity | Snow |
|---|---|---|---|---|---|---|---|
| 1777988272 | 15.56° C | 66% | 1009 hPa | 0 mm | - | - | - |
| 1777987972 | 15.56° C | 66% | 1009 hPa | 0 mm | - | - | - |
| 1777987672 | 15° C | 67% | 1009 hPa | 0 mm | - | - | - |
| 1777987342 | 14.44° C | 65% | 1009 hPa | 0 mm | - | - | - |
| 1777987042 | 15° C | 63% | 1009 hPa | 0 mm | - | - | - |
| 1777986742 | 15° C | 60% | 1009 hPa | 0 mm | - | - | - |
| 1777986442 | 15° C | 60% | 1009 hPa | 0 mm | - | - | - |
| 1777986142 | 15.56° C | 59% | 1009 hPa | 0 mm | - | - | - |
| 1777985842 | 15.56° C | 58% | 1009 hPa | 0 mm | - | - | - |
| 1777985542 | 15.56° C | 57% | 1009 hPa | 0 mm | - | - | - |
| 1777985242 | 15.56° C | 56% | 1009 hPa | 0 mm | - | - | - |
| 1777984942 | 16.11° C | 55% | 1009 hPa | 0 mm | - | - | - |
| 1777984642 | 16.11° C | 54% | 1009 hPa | 0 mm | - | - | - |
| 1777984342 | 17.22° C | 55% | 1009 hPa | 0 mm | - | - | - |
| 1777984042 | 17.22° C | 56% | 1009 hPa | 0 mm | - | - | - |
| 1777983742 | 17.78° C | 61% | 1009 hPa | 0 mm | - | - | - |
| 1777983442 | 16.67° C | 62% | 1009 hPa | 0 mm | - | - | - |
| 1777983265 | 16.11° C | 60% | 1009 hPa | 0 mm | - | - | - |
| 1777983197 | 16.11° C | 60% | 1009 hPa | 0 mm | - | - | - |
| 1777983142 | 16.11° C | 60% | 1009 hPa | 0 mm | - | - | - |
| 1777982812 | 16.11° C | 61% | 1010 hPa | 0 mm | - | - | - |
| 1777982544 | 16.11° C | 63% | 1010 hPa | 0 mm | - | - | - |
| 1777982512 | 16.11° C | 63% | 1010 hPa | 0 mm | - | - | - |
| 1777982212 | 16.11° C | 64% | 1010 hPa | 0 mm | - | - | - |
| 1777981912 | 16.11° C | 65% | 1010 hPa | 0 mm | - | - | - |
* Rain latest hour (hover to see other rain measurements)
** Current wind speed in m/s (hover to see current wind gust speed)